Location: Marcé
(47.5801°N, 0.3280°W)
Time: 03:58:30
(UTC+02:00)

Envisat - Visible Passes

Search period start: 08 June 2026 00:00
Search period end: 18 June 2026 00:00
Orbit: 761 x 763 km, 98.4° (Epoch: 7 June)

Date Brightness Start Highest point End Pass type
(mag) Time Alt. Az. Time Alt. Az. Time Alt. Az.
8 Jun 4.4 03:58:05 10° NNE 04:02:38 32° E 04:07:09 10° SSE visible
9 Jun 5.3 03:21:26 10° NE 03:24:25 16° E 03:27:23 10° SE visible
9 Jun 3.0 04:58:51 10° N 05:03:56 76° WNW 05:08:58 10° SSW visible
10 Jun 3.7 04:21:06 10° NNE 04:26:03 51° E 04:30:58 10° S visible
11 Jun 4.8 03:43:51 10° NE 03:47:59 25° E 03:52:04 10° SSE visible
11 Jun 3.5 05:22:16 10° N 05:27:08 48° WNW 05:31:59 10° SW visible
12 Jun 5.5 03:08:05 10° ENE 03:09:40 11° E 03:11:14 10° ESE visible
12 Jun 3.1 04:44:18 10° NNE 04:49:24 82° ESE 04:54:28 10° SSW visible
13 Jun 4.1 04:06:42 10° NNE 04:11:27 38° E 04:16:09 10° SSE visible
14 Jun 5.1 03:29:46 10° NE 03:33:17 19° E 03:36:46 10° SE visible
14 Jun 3.1 05:07:38 10° N 05:12:39 64° WNW 05:17:38 10° SSW visible
15 Jun 3.4 04:29:47 10° NNE 04:34:50 62° ESE 04:39:50 10° S visible
16 Jun 4.5 03:52:24 10° NE 03:56:48 29° E 04:01:10 10° SSE visible
17 Jun 5.4 03:15:59 10° ENE 03:18:33 14° E 03:21:06 10° ESE visible
17 Jun 3.0 04:53:02 10° NNE 04:58:08 84° WNW 05:03:12 10° SSW visible
